Regional Weather Roundup
Issued by NWS

Home | Current Version | Previous Version | Text Only | Print | Product List | Glossary Off
Versions: 1 2 3 4 5 6 7 8 9 10 11 12 13 14 15 16 17 18 19 20 21 22 23 24 25 26 27 28 29 30 31 32 33 34 35 36 37 38 39 40 41 42 43 44 45 46 47 48 49 50

000
ASUS43 KTOP 270559
RWRKS

WEATHER ROUNDUP FOR KANSAS
NATIONAL WEATHER SERVICE GOODLAND KS
1200 AM CST THU NOV 27 2014

NOTE:  "FAIR" INDICATES FEW OR NO CLOUDS BELOW 12,000 FEET WITH NO
SIGNIFICANT WEATHER AND/OR OBSTRUCTIONS TO VISIBILITY.

KSZ001>006-013>018-027>032-041>047-270700-
NORTHWEST KANSAS

CITY           SKY/WX    TMP DP  RH WIND       PRES   REMARKS
GOODLAND       PTCLDY    26  23  88 S9        30.35R
6HR MIN TEMP:  21; 6HR MAX TEMP:  29;

HAYS           CLOUDY    30  14  51 E5        30.42S
HILL CITY      CLOUDY    33  19  56 S3        30.41S
6HR MIN TEMP:  32; 6HR MAX TEMP:  37;

RUSSELL        CLOUDY    29  20  69 E5        30.42S
6HR MIN TEMP:  28; 6HR MAX TEMP:  36;

$$

KSZ061>065-074>080-084>089-270700-
SOUTHWEST KANSAS

CITY           SKY/WX    TMP DP  RH WIND       PRES   REMARKS
DODGE CITY     MOCLDY    25  16  68 CALM      30.42R
6HR MIN TEMP:  21; 6HR MAX TEMP:  34;

ELKHART          N/A     26  14  60 S10         N/A  WCI  16
GARDEN CITY    PTCLDY    21  15  78 S3        30.40R
6HR MIN TEMP:  21; 6HR MAX TEMP:  34;

GREAT BEND     CLOUDY    32  18  55 NE3       30.45R
LIBERAL        CLEAR     27  12  54 CALM      30.43R
$$

KSZ066>073-081>083-090>101-270700-
SOUTHEAST KANSAS

CITY           SKY/WX    TMP DP  RH WIND       PRES   REMARKS
CHANUTE        CLEAR     28  22  78 N10       30.44R WCI  19
6HR MIN TEMP:  27; 6HR MAX TEMP:  38;

COFFEYVILLE    CLEAR     30  22  72 N13       30.45R WCI  20
6HR MIN TEMP:  30; 6HR MAX TEMP:  41;

HUTCHINSON     MOCLDY    31  19  61 NE12      30.44F WCI  22
6HR MIN TEMP:  31; 6HR MAX TEMP:  39;

MEDICINE LODGE   N/A     26  20  77 N5        30.46R
NEWTON         PTCLDY    27  16  63 N15       30.44S WCI  15
PARSONS        CLEAR     29  22  75 N14       30.45R WCI  18
6HR MIN TEMP:  29; 6HR MAX TEMP:  39;

WICHITA INTL   MOCLDY    33  20  58 N13       30.45R WCI  24
6HR MIN TEMP:  32; 6HR MAX TEMP:  40;

WICHITA JABRA  PTCLDY    30  21  69 N18       30.44R WCI  18
6HR MIN TEMP:  29; 6HR MAX TEMP:  37;

WINFIELD       PTCLDY    31  22  69 N13       30.46R WCI  21
6HR MIN TEMP:  30; 6HR MAX TEMP:  41;

$$

KSZ007>012-019>026-033>040-048>060-102>105-270700-
NORTHEAST KANSAS

CITY           SKY/WX    TMP DP  RH WIND       PRES   REMARKS
CONCORDIA      CLEAR     22  16  78 N5        30.46R
6HR MIN TEMP:  21; 6HR MAX TEMP:  31;

EMPORIA        CLEAR     24  19  81 N7        30.45R
6HR MIN TEMP:  24; 6HR MAX TEMP:  33;

LAWRENCE       CLOUDY    28  20  71 NW12      30.47R WCI  18
6HR MIN TEMP:  28; 6HR MAX TEMP:  32;

MANHATTAN      CLEAR     20  16  84 CALM      30.48R
6HR MIN TEMP:  20; 6HR MAX TEMP:  33;

OLATHE IND     CLOUDY    28  22  78 NW12      30.43R WCI  18
6HR MIN TEMP:  28; 6HR MAX TEMP:  32;

OLATHE EXE     CLOUDY    28  21  75 NW13      30.41R WCI  17
6HR MIN TEMP:  28; 6HR MAX TEMP:  32;

SALINA         PTCLDY    27  18  69 N9        30.48R
6HR MIN TEMP:  24; 6HR MAX TEMP:  35;

TOPEKA BILLARD CLOUDY    28  19  69 NW16      30.49R WCI  16
6HR MIN TEMP:  28; 6HR MAX TEMP:  34;

TOPEKA FORBES  CLOUDY    28  19  69 N10       30.45R WCI  19
6HR MIN TEMP:  28; 6HR MAX TEMP:  34;

$$



USA.gov is the U.S. government's official web portal to all federal, state and local government web resources and services.